Location: Baix
(44.7118°N, 4.7648°E)
Time: 08:37:40
(UTC+00:00)

A-11 Canister half - Pass Details

Date: 29 November 2020
Orbit: 1517 x 1683 km, 47.2° (Epoch: 22 January)

Event Time Altitude Azimuth Distance (km) Brightness Sun altitude
Rises 18:45:50 0° 293° (WNW) 4,936 12.6 -28.4°
Reaches altitude 10° 18:49:40 10° 282° (WNW) 3,949 12.0 -29.1°
Maximum altitude 18:57:28 26° 231° (SW) 2,857 10.8 -30.5°
Drops below altitude 10° 19:05:12 10° 179° (S) 3,900 11.1 -31.8°
Sets 19:09:00 0° 168° (SSE) 4,864 11.5 -32.5°
